Date String (YYYY-MM-DD hh:mm:ss) UTC,Instrument flags,absolute air pressure of the measurement (hPa),sample flow rate (lpm),inlet stack bypass flow (lpm),air temperature of the measurement (°C),ambient temperature measured by the external sensor (°C),aerosol sample conditioner tube jacket temperature (°C),OPC LED temperature (°C),internal box temperature (°C),relative humidity of the measurement (%),span deviation,mass concentration of particles derived from Lorenz-Mie calculation of OPC scattering (μg/m³),mass concentration of particles derived from Lorenz-Mie calculation of OPC scattering (μg/m³),mass concentration of particles derived from Lorenz-Mie calculation of OPC scattering (μg/m³)
DateTimeUTC,F1_M11,P_M11,Q1_M11,Q2_M11,T1_M11,T2_M11,T3_M11,T4_M11,T5_M11,U1_M11,ZSPAN_M11,X0_M11,X2_M11,X1_M11
2024-05-23 13:00:00,SystemResetWarning,0819.5,5.00,000.00,027.6,026.8,000.0,035.9,029.4,011.9,0000.0,0011.96,0003.75,0002.69
2024-05-23 13:01:00,SystemResetWarning,0819.5,5.00,000.00,027.6,026.8,000.0,035.9,029.4,012.4,0000.0,0011.56,0003.75,0002.69
2024-05-23 13:02:00,SystemResetWarning,0819.6,5.00,000.00,027.6,026.8,000.0,035.9,029.4,012.2,0000.0,0011.63,0003.74,0002.69
2024-05-23 13:03:00,SystemResetWarning,0819.8,5.00,000.00,027.6,026.8,000.0,035.9,029.3,012.3,0000.0,0012.98,0003.81,0002.71
2024-05-23 13:04:00,SystemResetWarning,0820.1,5.00,000.00,027.6,026.8,000.0,035.9,029.3,012.6,0000.0,0012.80,0003.84,0002.70
2024-05-23 13:05:00,SystemResetWarning,0820.1,5.00,000.00,027.6,026.7,000.0,035.9,029.3,012.6,0000.0,0012.22,0003.83,0002.71
2024-05-23 13:06:00,SystemResetWarning,0820.2,5.00,000.00,027.6,026.7,000.0,035.9,029.3,012.5,0000.0,0011.91,0003.80,0002.72
2024-05-23 13:07:00,SystemResetWarning,0819.9,4.99,000.00,027.6,026.7,000.0,035.9,029.3,012.6,0000.0,0010.91,0003.78,0002.72
2024-05-23 13:08:00,SystemResetWarning,0819.8,5.01,000.00,027.5,026.7,000.0,035.9,029.3,012.6,0000.0,0011.10,0003.79,0002.72
2024-05-23 13:09:00,SystemResetWarning,0819.7,5.01,000.00,027.5,026.7,000.0,035.9,029.3,012.0,0000.0,0010.84,0003.77,0002.72
2024-05-23 13:10:00,SystemResetWarning,0819.8,5.01,000.00,027.5,026.7,000.0,035.9,029.3,011.8,0000.0,0010.77,0003.75,0002.73
2024-05-23 13:11:00,SystemResetWarning,0819.7,4.99,000.00,027.5,026.7,000.0,035.9,029.3,012.1,0000.0,0010.91,0003.73,0002.73
2024-05-23 13:12:00,SystemResetWarning,0819.5,5.00,000.00,027.5,026.6,000.0,035.9,029.2,012.6,0000.0,0011.10,0003.73,0002.74
2024-05-23 13:13:00,SystemResetWarning,0819.5,5.00,000.00,027.5,026.6,000.0,035.9,029.2,012.5,0000.0,0011.09,0003.73,0002.74
2024-05-23 13:14:00,SystemResetWarning,0819.5,5.01,000.00,027.5,026.6,000.0,035.9,029.2,012.4,0000.0,0010.00,0003.71,0002.75
2024-05-23 13:15:00,SystemResetWarning,0819.4,5.01,000.00,027.5,026.6,000.0,035.9,029.2,012.9,0000.0,0009.73,0003.69,0002.76
2024-05-23 13:16:00,SystemResetWarning,0819.4,4.98,000.00,027.5,026.6,000.0,035.9,029.2,012.9,0000.0,0010.11,0003.67,0002.77
2024-05-23 13:17:00,SystemResetWarning,0819.5,4.99,000.00,027.5,026.6,000.0,035.9,029.2,012.6,0000.0,0010.58,0003.67,0002.76
2024-05-23 13:18:00,SystemResetWarning,0819.6,5.01,000.00,027.5,026.6,000.0,035.9,029.2,012.7,0000.0,0010.97,0003.67,0002.78
2024-05-23 13:19:00,SystemResetWarning,0819.7,5.01,000.00,027.4,026.6,000.0,035.9,029.2,013.2,0000.0,0010.19,0003.67,0002.82
2024-05-23 13:20:00,SystemResetWarning,0819.6,4.99,000.00,027.4,026.6,000.0,035.9,029.2,012.8,0000.0,0009.92,0003.70,0002.85
2024-05-23 13:21:00,SystemResetWarning,0819.7,4.99,000.00,027.4,026.6,000.0,035.8,029.2,012.8,0000.0,0009.93,0003.71,0002.85
2024-05-23 13:22:00,SystemResetWarning,0819.7,5.02,000.00,027.4,026.6,000.0,035.8,029.2,013.2,0000.0,0009.77,0003.69,0002.85
2024-05-23 13:23:00,SystemResetWarning,0819.6,5.00,000.00,027.4,026.6,000.0,035.8,029.2,013.5,0000.0,0009.58,0003.67,0002.85
2024-05-23 13:24:00,SystemResetWarning,0819.5,4.98,000.00,027.4,026.6,000.0,035.8,029.2,013.4,0000.0,0009.66,0003.69,0002.85
2024-05-23 13:25:00,SystemResetWarning,0819.5,5.00,000.00,027.4,026.6,000.0,035.8,029.2,012.8,0000.0,0009.51,0003.65,0002.84
2024-05-23 13:26:00,SystemResetWarning,0819.7,5.02,000.00,027.4,026.6,000.0,035.8,029.2,013.0,0000.0,0009.57,0003.66,0002.84
2024-05-23 13:27:00,SystemResetWarning,0819.7,4.99,000.00,027.4,026.6,000.0,035.8,029.2,013.0,0000.0,0009.50,0003.67,0002.84
2024-05-23 13:28:00,SystemResetWarning,0820.0,4.99,000.00,027.4,026.6,000.0,035.8,029.2,012.9,0000.0,0009.07,0003.68,0002.85
2024-05-23 13:29:00,SystemResetWarning,0820.1,5.01,000.00,027.4,026.6,000.0,035.8,029.2,013.3,0000.0,0008.69,0003.71,0002.86
2024-05-23 13:30:00,SystemResetWarning,0820.0,5.01,000.00,027.4,026.6,000.0,035.8,029.2,013.5,0000.0,0008.76,0003.66,0002.84
2024-05-23 13:31:00,SystemResetWarning,0819.8,4.98,000.00,027.4,026.6,000.0,035.8,029.2,016.0,0000.0,0008.68,0003.63,0002.82
2024-05-23 13:32:00,SystemResetWarning,0819.6,5.00,000.00,027.4,026.6,000.0,035.8,029.2,015.8,0000.0,0008.51,0003.64,0002.83
2024-05-23 13:33:00,SystemResetWarning,0819.7,5.02,000.00,027.4,026.6,000.0,035.8,029.2,015.9,0000.0,0008.40,0003.66,0002.83
2024-05-23 13:34:00,SystemResetWarning,0819.5,5.00,000.00,027.4,026.7,000.0,035.8,029.2,015.7,0000.0,0008.99,0003.76,0002.83
2024-05-23 13:35:00,SystemResetWarning,0819.8,5.00,000.00,027.5,026.7,000.0,035.8,029.2,015.4,0000.0,0009.94,0003.78,0002.84
2024-05-23 13:36:00,SystemResetWarning,0820.1,4.99,000.00,027.5,026.7,000.0,035.8,029.2,015.2,0000.0,0011.74,0003.82,0002.84
2024-05-23 13:37:00,SystemResetWarning,0819.9,5.00,000.00,027.5,026.7,000.0,035.8,029.3,015.5,0000.0,0011.75,0003.84,0002.83
2024-05-23 13:38:00,SystemResetWarning,0819.6,4.99,000.00,027.5,026.7,000.0,035.8,029.3,015.1,0000.0,0011.22,0003.82,0002.84
2024-05-23 13:39:00,SystemResetWarning,0819.8,5.00,000.00,027.5,026.7,000.0,035.8,029.2,015.0,0000.0,0011.17,0003.82,0002.84
2024-05-23 13:40:00,SystemResetWarning,0819.5,4.99,000.00,027.5,026.7,000.0,035.8,029.3,013.3,0000.0,0011.74,0003.82,0002.83
2024-05-23 13:41:00,SystemResetWarning,0819.5,5.01,000.00,027.5,026.7,000.0,035.8,029.3,013.4,0000.0,0012.01,0003.84,0002.82
2024-05-23 13:42:00,SystemResetWarning,0819.5,5.01,000.00,027.5,026.7,000.0,035.8,029.3,015.1,0000.0,0012.48,0003.89,0002.83
2024-05-23 13:43:00,SystemResetWarning,0819.6,5.00,000.00,027.5,026.7,000.0,035.8,029.3,013.3,0000.0,0012.67,0003.87,0002.83
2024-05-23 13:44:00,SystemResetWarning,0819.5,5.00,000.00,027.5,026.8,000.0,035.8,029.3,013.1,0000.0,0013.43,0003.89,0002.84
2024-05-23 13:45:00,SystemResetWarning,0819.8,5.00,000.00,027.5,026.8,000.0,035.8,029.3,013.4,0000.0,0012.96,0003.85,0002.82
2024-05-23 13:46:00,SystemResetWarning,0819.8,4.99,000.00,027.5,026.8,000.0,035.8,029.3,013.7,0000.0,0012.59,0003.84,0002.83
2024-05-23 13:47:00,SystemResetWarning,0820.1,4.99,000.00,027.5,026.8,000.0,035.8,029.3,013.8,0000.0,0012.35,0003.85,0002.84
2024-05-23 13:48:00,SystemResetWarning,0819.9,4.99,000.00,027.6,026.8,000.0,035.8,029.3,014.6,0000.0,0012.59,0003.82,0002.82
2024-05-23 13:49:00,SystemResetWarning,0819.8,5.00,000.00,027.6,026.8,000.0,035.8,029.3,014.6,0000.0,0012.88,0003.84,0002.82
2024-05-23 13:50:00,SystemResetWarning,0819.9,5.00,000.00,027.6,026.8,000.0,035.8,029.3,014.9,0000.0,0014.57,0003.91,0002.83
2024-05-23 13:51:00,SystemResetWarning,0819.8,5.00,000.00,027.6,026.8,000.0,035.8,029.3,015.0,0000.0,0014.19,0003.92,0002.84
2024-05-23 13:52:00,SystemResetWarning,0819.6,5.00,000.00,027.6,026.8,000.0,035.9,029.3,015.0,0000.0,0013.71,0003.93,0002.84
2024-05-23 13:53:00,SystemResetWarning,0819.5,5.00,000.00,027.6,026.8,000.0,035.9,029.3,014.9,0000.0,0013.41,0003.94,0002.83
2024-05-23 13:54:00,SystemResetWarning,0819.5,5.00,000.00,027.6,026.9,000.0,035.9,029.4,014.2,0000.0,0014.20,0003.99,0002.84
2024-05-23 13:55:00,SystemResetWarning,0820.0,5.00,000.00,027.6,026.9,000.0,035.9,029.4,015.7,0000.0,0013.64,0004.04,0002.85
2024-05-23 13:56:00,SystemResetWarning,0819.8,5.01,000.00,027.6,026.9,000.0,035.9,029.4,015.6,0000.0,0013.70,0004.04,0002.85
2024-05-23 13:57:00,SystemResetWarning,0820.0,5.00,000.00,027.6,026.9,000.0,035.9,029.4,015.0,0000.0,0014.26,0004.05,0002.85
2024-05-23 13:58:00,SystemResetWarning,0819.8,5.00,000.00,027.6,026.9,000.0,035.9,029.4,014.9,0000.0,0013.79,0004.06,0002.85
2024-05-23 13:59:00,SystemResetWarning,0819.7,5.00,000.00,027.6,026.9,000.0,035.9,029.4,013.7,0000.0,0012.93,0004.04,0002.84
